Weather History for KOSC - May, 2014

Change the Weather History Date:

Saturday, May 17, 2014

  Actual Average Record
Temperature  
Mean Temperature 42 °F -  
Max Temperature 53 °F 60 °F 84 °F (1998)
Min Temperature 30 °F 42 °F 29 °F (2012)
Degree Days  
Heating Degree Days 24    
Moisture  
Dew Point 34 °F    
Average Humidity 79    
Maximum Humidity 96    
Minimum Humidity 41    
Precipitation  
Precipitation 0.06 in - - ()
Sea Level Pressure  
Sea Level Pressure 30.06 in    
Wind  
Wind Speed 3 mph (SW)    
Max Wind Speed 17 mph    
Max Gust Speed 22 mph    
Visibility 10 miles    
Events Rain    
Averages and records for this station are not official NWS values.
T = Trace of Precipitation, MM = Missing Value Source: NWS Daily Summary

Daily Weather History Graph

Daily Weather History Graph

Search for Another Location

Airport or City:

Trip Planner

Search our weather history database for the weather conditions in past years. The results will help you decide how hot, cold, wet, or windy it might be!

Date:

Astronomy

May. 17, 2014 Rise Set
Actual Time 6:04 AM EDT 8:56 PM EDT
Civil Twilight 5:30 AM EDT 9:30 PM EDT
Nautical Twilight 4:46 AM EDT 10:14 PM EDT
Astronomical Twilight 3:56 AM EDT 11:05 PM EDT
Moon 11:55 PM EDT (5/17) 8:46 AM EDT (5/17)
Length of Visible Light 16h 00m
Length of Day
14h 52m
Waning Gibbous, 89% of the Moon is Illuminated
May 17
Waning Gibbous
May 21
Last Quarter
May 28
New
Jun 5
First Quarter
Jun 13
Full

Hourly Weather History & Observations

Time (EDT) Temp. Windchill Dew Point Humidity Pressure Visibility Wind Dir Wind Speed Gust Speed Precip Events Conditions
12:13 AM 32.4 °F - 29.1 °F 88% 30.02 in 10.0 mi Calm Calm - N/A   Scattered Clouds
12:34 AM 33.8 °F 30.8 °F 31.1 °F 90% 30.02 in 10.0 mi SW 3.5 mph - N/A   Mostly Cloudy
12:54 AM 32.4 °F 29.1 °F 30.4 °F 92% 30.02 in 10.0 mi WSW 3.5 mph - N/A   Overcast
1:13 AM 33.3 °F - 31.3 °F 92% 30.02 in 10.0 mi Calm Calm - N/A   Overcast
1:34 AM 34.2 °F - 32.0 °F 92% 30.02 in 10.0 mi Calm Calm - N/A   Overcast
1:54 AM 33.8 °F - 31.8 °F 92% 30.02 in 10.0 mi Calm Calm - N/A   Overcast
2:13 AM 33.8 °F - 31.6 °F 92% 30.02 in 10.0 mi Calm Calm - N/A   Overcast
2:34 AM 34.2 °F - 32.0 °F 92% 30.02 in 10.0 mi Calm Calm - N/A   Overcast
2:53 AM 32.7 °F - 30.7 °F 92% 30.02 in 10.0 mi Calm Calm - N/A   Mostly Cloudy
3:13 AM 31.6 °F 28.3 °F 29.7 °F 92% 30.02 in 10.0 mi West 3.5 mph - N/A   Clear
3:34 AM 30.9 °F - 28.4 °F 90% 30.02 in 10.0 mi Calm Calm - N/A   Clear
3:53 AM 30.9 °F 27.5 °F 28.8 °F 92% 30.02 in 10.0 mi WNW 3.5 mph - N/A   Clear
4:13 AM 32.0 °F 28.7 °F 29.3 °F 90% 30.02 in 10.0 mi West 3.5 mph - N/A   Clear
4:34 AM 30.9 °F 26.2 °F 28.4 °F 90% 30.03 in 10.0 mi WNW 4.6 mph - N/A   Clear
4:53 AM 30.9 °F 26.2 °F 28.0 °F 89% 30.03 in 10.0 mi WNW 4.6 mph - N/A   Clear
5:14 AM 30.7 °F 27.3 °F 27.5 °F 88% 30.02 in 10.0 mi WNW 3.5 mph - N/A   Clear
5:33 AM 31.6 °F - 28.9 °F 90% 30.02 in 10.0 mi Calm Calm - N/A   Clear
5:53 AM 32.4 °F - 29.3 °F 88% 30.02 in 10.0 mi Calm Calm - N/A   Mostly Cloudy
6:14 AM 32.5 °F - 29.8 °F 90% 30.03 in 10.0 mi Calm Calm - N/A   Mostly Cloudy
6:33 AM 32.9 °F - 30.2 °F 90% 30.03 in 10.0 mi Calm Calm - N/A   Mostly Cloudy
6:54 AM 32.9 °F - 30.2 °F 90% 30.03 in 10.0 mi Calm Calm - N/A   Overcast
7:14 AM 34.7 °F - 31.6 °F 89% 30.04 in 10.0 mi Calm Calm - N/A   Overcast
7:33 AM 36.5 °F - 32.0 °F 84% 30.05 in 10.0 mi Calm Calm - N/A   Overcast
7:54 AM 36.7 °F 34.1 °F 32.0 °F 83% 30.05 in 10.0 mi NW 3.5 mph - N/A   Mostly Cloudy
8:14 AM 38.5 °F - 32.0 °F 78% 30.05 in 10.0 mi Calm Calm - N/A   Clear
8:33 AM 39.9 °F - 32.2 °F 74% 30.06 in 10.0 mi Calm Calm - N/A   Clear
8:54 AM 42.3 °F 38.6 °F 32.2 °F 67% 30.06 in 10.0 mi NW 5.8 mph - N/A   Scattered Clouds
9:14 AM 44.4 °F 42.0 °F 31.8 °F 61% 30.06 in 10.0 mi West 4.6 mph - N/A   Scattered Clouds
9:33 AM 45.5 °F 43.2 °F 31.6 °F 58% 30.06 in 10.0 mi NW 4.6 mph - N/A   Clear
9:54 AM 47.5 °F - 31.8 °F 55% 30.06 in 10.0 mi WNW 4.6 mph - N/A   Scattered Clouds
10:14 AM 48.0 °F - 31.3 °F 52% 30.05 in 10.0 mi SW 5.8 mph - N/A   Scattered Clouds
10:33 AM 49.8 °F - 31.3 °F 49% 30.05 in 10.0 mi SW 5.8 mph - N/A   Scattered Clouds
10:54 AM 50.5 °F - 30.2 °F 46% 30.05 in 10.0 mi West 9.2 mph 17.3 mph N/A   Clear
11:13 AM 53.1 °F - 29.7 °F 41% 30.05 in 10.0 mi West 4.6 mph 20.7 mph N/A   Scattered Clouds
11:33 AM 48.7 °F - 32.5 °F 54% 30.05 in 10.0 mi NE 6.9 mph - N/A   Overcast
11:54 AM 46.8 °F - 33.8 °F 61% 30.05 in 10.0 mi South 6.9 mph - N/A Rain Light Rain
12:13 PM 45.7 °F 41.0 °F 34.7 °F 65% 30.05 in 10.0 mi South 9.2 mph - N/A Rain Light Rain
12:33 PM 46.4 °F 42.4 °F 36.1 °F 67% 30.05 in 10.0 mi South 8.1 mph - N/A Rain Light Rain
12:54 PM 48.6 °F - 34.0 °F 57% 30.05 in 10.0 mi South 8.1 mph - N/A   Light Drizzle
1:13 PM 47.8 °F - 33.4 °F 57% 30.06 in 10.0 mi South 10.4 mph - N/A Rain Light Rain
1:34 PM 45.7 °F 42.0 °F 37.9 °F 74% 30.06 in 10.0 mi South 6.9 mph - N/A Rain Light Rain
1:54 PM 46.9 °F - 38.3 °F 72% 30.05 in 10.0 mi SE 5.8 mph - N/A   Overcast
2:13 PM 50.0 °F - 38.1 °F 64% 30.05 in 10.0 mi ESE 5.8 mph - N/A   Mostly Cloudy
2:34 PM 50.2 °F - 38.3 °F 64% 30.04 in 10.0 mi ESE 9.2 mph - N/A   Overcast
2:53 PM 51.6 °F - 35.6 °F 54% 30.05 in 10.0 mi SSE 10.4 mph - N/A   Overcast
3:13 PM 50.0 °F - 36.3 °F 59% 30.04 in 10.0 mi South 11.5 mph - N/A   Overcast
3:34 PM 52.2 °F - 33.3 °F 49% 30.03 in 10.0 mi SSW 10.4 mph 17.3 mph N/A   Overcast
3:53 PM 49.1 °F - 36.5 °F 62% 30.05 in 7.0 mi WNW 17.3 mph 21.9 mph N/A Rain Light Rain
4:13 PM 44.1 °F 38.1 °F 39.9 °F 85% 30.07 in 4.0 mi NW 11.5 mph - 0.02 in Rain Rain
4:34 PM 42.8 °F 38.6 °F 39.6 °F 88% 30.08 in 7.0 mi NNW 6.9 mph - 0.06 in Rain Rain
4:53 PM 43.9 °F 40.5 °F 40.6 °F 88% 30.08 in 10.0 mi North 5.8 mph - 0.06 in Rain Light Rain
5:13 PM 43.7 °F 41.1 °F 40.5 °F 88% 30.07 in 10.0 mi ENE 4.6 mph - N/A Rain Light Rain
5:34 PM 44.4 °F 42.0 °F 40.3 °F 85% 30.07 in 10.0 mi NNE 4.6 mph - N/A   Overcast
5:53 PM 44.6 °F 43.1 °F 39.7 °F 83% 30.09 in 10.0 mi NNE 3.5 mph - N/A   Mostly Cloudy
6:13 PM 44.6 °F - 38.5 °F 79% 30.08 in 10.0 mi Calm Calm - N/A   Scattered Clouds
6:34 PM 45.5 °F - 38.7 °F 77% 30.09 in 10.0 mi Calm Calm - N/A   Scattered Clouds
6:53 PM 45.3 °F 44.0 °F 38.3 °F 76% 30.09 in 10.0 mi NNE 3.5 mph - N/A   Mostly Cloudy
7:13 PM 45.5 °F 41.8 °F 39.4 °F 79% 30.10 in 10.0 mi North 6.9 mph - N/A   Overcast
7:34 PM 45.7 °F 42.0 °F 40.1 °F 81% 30.09 in 10.0 mi SE 6.9 mph - N/A   Mostly Cloudy
7:53 PM 45.5 °F 42.5 °F 40.5 °F 83% 30.09 in 10.0 mi ESE 5.8 mph - N/A   Scattered Clouds
8:14 PM 45.0 °F 43.5 °F 40.5 °F 84% 30.09 in 10.0 mi SSE 3.5 mph - N/A   Clear
8:34 PM 44.8 °F 41.6 °F 40.3 °F 84% 30.10 in 10.0 mi SSE 5.8 mph - N/A   Clear
8:53 PM 43.7 °F 40.3 °F 39.2 °F 84% 30.10 in 10.0 mi South 5.8 mph - N/A   Scattered Clouds
9:14 PM 42.8 °F 41.1 °F 39.2 °F 87% 30.10 in 10.0 mi SSE 3.5 mph - N/A   Scattered Clouds
9:34 PM 42.4 °F 40.7 °F 38.8 °F 87% 30.10 in 10.0 mi SSE 3.5 mph - N/A   Clear
9:53 PM 41.9 °F - 38.5 °F 88% 30.11 in 10.0 mi Calm Calm - N/A   Clear
10:14 PM 40.1 °F - 37.4 °F 90% 30.11 in 10.0 mi Calm Calm - N/A   Clear
10:34 PM 39.7 °F - 37.8 °F 93% 30.12 in 10.0 mi Calm Calm - N/A   Clear
10:53 PM 39.2 °F - 37.4 °F 93% 30.12 in 10.0 mi Calm Calm - N/A   Clear
11:14 PM 37.2 °F - 35.6 °F 94% 30.12 in 5.0 mi Calm Calm - N/A   Clear
11:34 PM 37.2 °F - 35.8 °F 95% 30.12 in 5.0 mi Calm Calm - N/A   Clear
11:53 PM 36.5 °F 33.9 °F 35.4 °F 96% 30.12 in 10.0 mi SSW 3.5 mph - N/A   Clear